Date,TemperatureHighF,TemperatureAvgF,TemperatureLowF,DewpointHighF,DewpointAvgF,DewpointLowF,HumidityHigh,HumidityAvg,HumidityLow,PressureMaxIn,PressureMinIn,WindSpeedMaxMPH,WindSpeedAvgMPH,GustSpeedMaxMPH,PrecipitationSumIn
2013-4-1,47.7,42.7,32.9,42.8,24.4,8.6,84,52,25,30.07,29.78,19,4,19,0.00
2013-4-2,43.3,33.5,25.0,16.3,11.0,6.4,59,40,28,30.22,30.04,14,2,14,0.00
2013-4-3,44.2,32.2,21.4,17.6,10.0,4.3,66,42,23,30.46,30.22,16,2,17,0.00
2013-4-4,57.9,38.1,18.5,18.3,11.8,6.4,67,39,17,30.43,30.04,8,1,8,0.00
2013-4-5,58.5,42.3,25.5,26.2,18.4,13.1,70,41,25,30.22,29.99,16,2,16,0.00
2013-4-6,60.1,43.2,23.4,21.7,14.8,10.9,68,36,17,30.34,30.07,9,1,9,0.00
2013-4-7,74.7,62.3,47.3,39.0,29.8,18.1,45,30,23,30.10,29.96,17,4,17,0.00
2013-4-8,77.7,62.9,46.4,43.5,38.1,32.9,70,43,24,30.10,29.99,17,2,17,0.00
2013-4-9,82.4,70.7,53.4,48.7,44.8,40.8,72,41,27,30.19,29.99,15,2,15,0.00
2013-4-10,81.9,68.2,58.1,65.5,52.8,43.3,91,60,34,30.04,29.90,20,2,20,0.37
2013-4-11,76.6,65.9,54.9,63.9,54.8,47.5,98,71,42,29.99,29.69,11,1,11,0.37
2013-4-12,65.1,57.9,47.1,61.9,45.9,27.5,94,66,41,29.93,29.60,20,3,20,0.37
2013-4-13,56.1,47.5,39.7,30.9,28.1,25.3,63,48,35,30.07,29.93,17,4,17,0.00
2013-4-14,65.1,50.5,30.6,33.3,27.7,21.7,80,45,25,30.22,30.07,10,1,10,0.00
2013-4-15,70.2,60.8,50.2,44.2,39.4,29.7,65,46,32,30.16,30.01,13,2,13,0.00
2013-4-16,81.0,63.9,48.4,58.1,49.0,41.4,94,62,35,30.28,30.10,25,2,25,0.58
2013-4-17,70.2,60.7,53.8,57.0,50.6,45.5,97,72,44,30.34,30.16,9,1,9,0.58
2013-4-18,88.5,72.6,55.6,60.4,51.9,47.5,92,54,28,30.19,29.87,18,3,18,0.00
2013-4-19,72.3,60.7,46.4,60.8,43.3,23.7,80,54,41,29.93,29.60,17,4,17,0.12
2013-4-20,51.6,43.6,35.6,28.2,21.4,16.5,66,42,29,30.43,29.93,17,4,17,0.00
2013-4-21,55.0,42.4,27.0,29.1,19.9,14.2,81,45,21,30.64,30.43,11,1,11,0.04
2013-4-22,66.0,52.5,37.9,27.7,22.8,15.4,59,33,19,30.49,30.34,13,2,13,0.00
2013-4-23,74.3,56.9,36.1,35.6,29.8,23.0,77,39,21,30.34,30.04,8,1,8,0.00
2013-4-24,72.5,56.1,41.4,58.6,40.3,30.7,89,57,35,30.22,29.84,23,3,23,0.33
2013-4-25,60.3,48.0,33.3,37.6,28.7,23.4,86,52,25,30.40,30.22,15,3,15,0.00
2013-4-26,63.0,49.8,34.5,44.8,30.3,23.0,91,54,24,30.52,30.40,8,1,8,0.00
2013-4-27,76.5,57.4,34.0,36.9,29.9,23.7,83,42,16,30.43,30.22,9,1,9,0.04
2013-4-28,62.8,56.1,46.8,55.2,44.8,32.5,88,68,35,30.25,29.99,8,1,8,0.17
2013-4-29,68.2,58.3,51.4,59.0,52.8,45.3,93,83,54,30.07,29.99,8,0,8,0.08
2013-4-30,76.8,62.8,48.2,62.6,49.2,44.8,97,65,36,30.25,30.07,10,2,10,0.00